Time,TemperatureF,DewpointF,PressureIn,WindDirection,WindDirectionDegrees,WindSpeedMPH,WindSpeedGustMPH,Humidity,HourlyPrecipIn,Conditions,Clouds,dailyrainin,SoftwareType,DateUTC
2013-08-27 00:00:00,83.7,77.6,29.97,East,88,6.0,14.0,82,0.00,CLR,,0.00,WeatherDisplay:10.37,2013-08-27 06:00:00,
2013-08-27 00:15:00,83.7,77.6,29.96,East,90,6.0,13.0,82,0.00,CLR,,0.00,WeatherDisplay:10.37,2013-08-27 06:15:00,
2013-08-27 00:30:00,83.7,77.9,29.96,East,94,7.0,12.0,83,0.00,CLR,,0.00,WeatherDisplay:10.37,2013-08-27 06:30:00,
2013-08-27 00:45:00,83.5,77.8,29.95,East,79,8.0,13.0,83,0.00,CLR,,0.00,WeatherDisplay:10.37,2013-08-27 06:45:00,
2013-08-27 01:00:00,83.5,77.4,29.94,East,90,12.0,14.0,82,0.00,CLR,,0.00,WeatherDisplay:10.37,2013-08-27 07:00:00,
2013-08-27 01:15:00,83.6,77.1,29.94,East,88,10.0,13.0,81,0.00,CLR,,0.00,WeatherDisplay:10.37,2013-08-27 07:15:00,
2013-08-27 01:30:00,83.4,77.3,29.93,East,93,8.0,12.0,82,0.00,CLR,,0.00,WeatherDisplay:10.37,2013-08-27 07:30:00,
2013-08-27 01:45:00,83.4,77.3,29.93,East,90,3.0,12.0,82,0.00,CLR,,0.00,WeatherDisplay:10.37,2013-08-27 07:45:00,
2013-08-27 02:00:00,83.4,77.7,29.92,East,91,2.0,10.0,83,0.00,CLR,,0.00,WeatherDisplay:10.37,2013-08-27 08:00:00,
2013-08-27 02:15:00,83.4,77.7,29.92,East,87,8.0,12.0,83,0.00,CLR,,0.00,WeatherDisplay:10.37,2013-08-27 08:15:00,
2013-08-27 02:30:00,83.1,76.7,29.91,East,97,8.0,13.0,81,0.00,CLR,,0.00,WeatherDisplay:10.37,2013-08-27 08:30:00,
2013-08-27 02:45:00,83.2,77.1,29.91,East,96,7.0,12.0,82,0.00,CLR,,0.00,WeatherDisplay:10.37,2013-08-27 08:45:00,
2013-08-27 03:00:00,82.9,76.9,29.90,East,92,2.0,9.0,82,0.00,CLR,,0.00,WeatherDisplay:10.37,2013-08-27 09:00:00,
2013-08-27 03:15:00,82.9,76.5,29.90,East,99,5.0,8.0,81,0.00,CLR,,0.00,WeatherDisplay:10.37,2013-08-27 09:15:00,
2013-08-27 03:30:00,82.8,76.8,29.91,East,99,1.0,7.0,82,0.00,CLR,,0.00,WeatherDisplay:10.37,2013-08-27 09:30:00,
2013-08-27 03:45:00,82.8,77.1,29.90,East,90,2.0,8.0,83,0.00,CLR,,0.00,WeatherDisplay:10.37,2013-08-27 09:45:00,
2013-08-27 04:00:00,82.7,76.6,29.91,East,89,3.0,9.0,82,0.00,CLR,,0.00,WeatherDisplay:10.37,2013-08-27 10:00:00,
2013-08-27 04:15:00,82.8,76.7,29.91,East,91,2.0,8.0,82,0.00,CLR,,0.00,WeatherDisplay:10.37,2013-08-27 10:15:00,
2013-08-27 04:30:00,82.6,76.9,29.91,East,87,3.0,7.0,83,0.00,CLR,,0.00,WeatherDisplay:10.37,2013-08-27 10:30:00,
2013-08-27 04:45:00,82.7,77.0,29.92,East,89,1.0,8.0,83,0.00,CLR,,0.00,WeatherDisplay:10.37,2013-08-27 10:45:00,
2013-08-27 05:00:00,82.6,77.3,29.92,ESE,104,3.0,7.0,84,0.00,CLR,,0.00,WeatherDisplay:10.37,2013-08-27 11:00:00,
2013-08-27 05:15:00,82.8,76.7,29.92,East,97,7.0,10.0,82,0.00,CLR,,0.00,WeatherDisplay:10.37,2013-08-27 11:15:00,
2013-08-27 05:30:00,82.8,77.1,29.92,East,100,1.0,9.0,83,0.00,CLR,,0.00,WeatherDisplay:10.37,2013-08-27 11:30:00,
2013-08-27 05:45:00,82.6,77.3,29.93,ESE,104,3.0,9.0,84,0.00,CLR,,0.00,WeatherDisplay:10.37,2013-08-27 11:45:00,
2013-08-27 06:00:00,82.9,77.6,29.93,ESE,107,7.0,9.0,84,0.00,CLR,,0.00,WeatherDisplay:10.37,2013-08-27 12:00:00,
2013-08-27 06:15:00,83.6,77.9,29.93,ESE,106,5.0,9.0,83,0.00,CLR,,0.00,WeatherDisplay:10.37,2013-08-27 12:15:00,
2013-08-27 06:30:00,83.6,76.8,29.93,East,97,2.0,10.0,80,0.00,CLR,,0.00,WeatherDisplay:10.37,2013-08-27 12:30:00,
2013-08-27 06:45:00,83.9,77.1,29.94,East,92,7.0,10.0,80,0.00,CLR,,0.00,WeatherDisplay:10.37,2013-08-27 12:45:00,
2013-08-27 07:00:00,84.7,76.7,29.94,East,99,6.0,10.0,77,0.00,CLR,,0.00,WeatherDisplay:10.37,2013-08-27 13:00:00,
2013-08-27 07:15:00,85.0,77.4,29.95,ESE,105,3.0,10.0,78,0.00,CLR,,0.00,WeatherDisplay:10.37,2013-08-27 13:15:00,
2013-08-27 07:30:00,85.6,77.6,29.95,East,96,7.0,9.0,77,0.00,CLR,,0.00,WeatherDisplay:10.37,2013-08-27 13:30:00,
2013-08-27 07:45:00,85.4,77.8,29.96,East,94,6.0,13.0,78,0.00,CLR,,0.00,WeatherDisplay:10.37,2013-08-27 13:45:00,
2013-08-27 08:00:00,85.9,78.2,29.96,East,97,2.0,10.0,78,0.00,CLR,,0.00,WeatherDisplay:10.37,2013-08-27 14:00:00,
2013-08-27 08:15:00,85.7,77.7,29.97,East,81,9.0,12.0,77,0.00,CLR,,0.00,WeatherDisplay:10.37,2013-08-27 14:15:00,
2013-08-27 08:30:00,86.6,78.1,29.97,East,95,5.0,12.0,76,0.00,CLR,,0.00,WeatherDisplay:10.37,2013-08-27 14:30:00,
2013-08-27 08:45:00,85.9,77.5,29.97,East,87,8.0,13.0,76,0.00,CLR,,0.00,WeatherDisplay:10.37,2013-08-27 14:45:00,
2013-08-27 09:00:00,86.3,77.9,29.97,East,83,6.0,10.0,76,0.00,CLR,,0.00,WeatherDisplay:10.37,2013-08-27 15:00:00,
2013-08-27 09:15:00,86.6,78.6,29.97,East,96,5.0,12.0,77,0.00,CLR,,0.00,WeatherDisplay:10.37,2013-08-27 15:15:00,
2013-08-27 09:30:00,86.4,78.4,29.97,East,91,3.0,12.0,77,0.00,CLR,,0.00,WeatherDisplay:10.37,2013-08-27 15:30:00,
2013-08-27 09:45:00,87.6,78.7,29.97,East,88,3.0,12.0,75,0.00,CLR,,0.00,WeatherDisplay:10.37,2013-08-27 15:45:00,
2013-08-27 10:00:00,86.9,78.4,29.97,East,85,5.0,10.0,76,0.00,CLR,,0.00,WeatherDisplay:10.37,2013-08-27 16:00:00,
2013-08-27 10:15:00,87.7,77.5,29.98,East,88,7.0,10.0,72,0.00,CLR,,0.00,WeatherDisplay:10.37,2013-08-27 16:15:00,
2013-08-27 10:30:00,88.1,79.2,29.97,East,80,2.0,10.0,75,0.00,CLR,,0.00,WeatherDisplay:10.37,2013-08-27 16:30:00,
2013-08-27 10:45:00,89.5,79.3,29.97,ENE,68,5.0,9.0,72,0.00,CLR,,0.00,WeatherDisplay:10.37,2013-08-27 16:45:00,
2013-08-27 11:00:00,89.4,79.6,29.97,ENE,74,3.0,10.0,73,0.00,CLR,,0.00,WeatherDisplay:10.37,2013-08-27 17:00:00,
2013-08-27 11:15:00,88.7,78.5,29.96,East,90,5.0,10.0,72,0.00,CLR,,0.00,WeatherDisplay:10.37,2013-08-27 17:15:00,
2013-08-27 11:30:00,89.1,78.9,29.96,ENE,69,3.0,9.0,72,0.00,CLR,,0.00,WeatherDisplay:10.37,2013-08-27 17:30:00,
2013-08-27 11:45:00,89.1,78.0,29.96,East,89,5.0,9.0,70,0.00,CLR,,0.00,WeatherDisplay:10.37,2013-08-27 17:45:00,
2013-08-27 12:00:00,89.7,78.6,29.95,ENE,77,5.0,10.0,70,0.00,CLR,,0.00,WeatherDisplay:10.37,2013-08-27 18:00:00,
2013-08-27 12:15:00,90.0,78.9,29.95,ENE,69,3.0,9.0,70,0.00,CLR,,0.00,WeatherDisplay:10.37,2013-08-27 18:15:00,
2013-08-27 12:30:00,89.5,78.8,29.94,ENE,63,3.0,9.0,71,0.00,CLR,,0.00,WeatherDisplay:10.37,2013-08-27 18:30:00,
2013-08-27 12:45:00,90.0,79.3,29.93,ENE,68,3.0,9.0,71,0.00,CLR,,0.00,WeatherDisplay:10.37,2013-08-27 18:45:00,
2013-08-27 13:00:00,89.7,78.6,29.93,ENE,63,3.0,9.0,70,0.00,CLR,,0.00,WeatherDisplay:10.37,2013-08-27 19:00:00,
2013-08-27 13:15:00,89.5,78.5,29.92,ENE,58,5.0,9.0,70,0.00,CLR,,0.00,WeatherDisplay:10.37,2013-08-27 19:15:00,
2013-08-27 13:30:00,89.5,79.3,29.92,NE,56,5.0,10.0,72,0.00,CLR,,0.00,WeatherDisplay:10.37,2013-08-27 19:30:00,
2013-08-27 13:45:00,89.1,78.5,29.92,ENE,74,6.0,10.0,71,0.00,CLR,,0.00,WeatherDisplay:10.37,2013-08-27 19:45:00,
2013-08-27 14:00:00,89.1,78.5,29.91,ENE,70,3.0,10.0,71,0.00,CLR,,0.00,WeatherDisplay:10.37,2013-08-27 20:00:00,
2013-08-27 14:15:00,89.4,78.8,29.90,ENE,73,5.0,10.0,71,0.00,CLR,,0.00,WeatherDisplay:10.37,2013-08-27 20:15:00,
2013-08-27 14:30:00,89.4,78.8,29.90,ENE,68,3.0,9.0,71,0.00,CLR,,0.00,WeatherDisplay:10.37,2013-08-27 20:30:00,
2013-08-27 14:45:00,89.4,78.3,29.89,ENE,71,3.0,8.0,70,0.00,CLR,,0.00,WeatherDisplay:10.37,2013-08-27 20:45:00,
2013-08-27 15:00:00,88.7,78.5,29.89,ENE,78,6.0,10.0,72,0.00,CLR,,0.00,WeatherDisplay:10.37,2013-08-27 21:00:00,
2013-08-27 15:15:00,88.2,78.4,29.89,ENE,78,6.0,9.0,73,0.00,CLR,,0.00,WeatherDisplay:10.37,2013-08-27 21:15:00,
2013-08-27 15:32:00,88.2,78.0,29.90,ENE,64,5.0,10.0,72,0.00,CLR,,0.00,WeatherDisplay:10.37,2013-08-27 21:32:00,
2013-08-27 16:00:00,87.4,78.1,29.90,ENE,73,3.0,12.0,74,0.00,CLR,,0.00,WeatherDisplay:10.37,2013-08-27 22:00:00,
2013-08-27 16:15:00,87.3,78.0,29.90,ENE,63,5.0,12.0,74,0.00,CLR,,0.00,WeatherDisplay:10.37,2013-08-27 22:15:00,
2013-08-27 16:26:00,87.3,78.4,29.90,ENE,66,3.0,12.0,75,0.00,CLR,,0.00,WeatherDisplay:10.37,2013-08-27 22:26:00,
2013-08-27 16:45:00,86.8,77.9,29.90,ENE,78,6.0,10.0,75,0.00,CLR,,0.00,WeatherDisplay:10.37,2013-08-27 22:45:00,
2013-08-27 17:00:00,86.1,77.7,29.90,East,88,6.0,12.0,76,0.00,CLR,,0.00,WeatherDisplay:10.37,2013-08-27 23:00:00,
2013-08-27 17:15:00,85.9,77.8,29.90,ENE,65,6.0,10.0,77,0.00,CLR,,0.00,WeatherDisplay:10.37,2013-08-27 23:15:00,
2013-08-27 17:30:00,85.5,77.4,29.90,ENE,61,2.0,10.0,77,0.00,CLR,,0.00,WeatherDisplay:10.37,2013-08-27 23:30:00,
2013-08-27 17:45:00,84.8,76.8,29.90,ENE,77,6.0,13.0,77,0.00,CLR,,0.00,WeatherDisplay:10.37,2013-08-27 23:45:00,
2013-08-27 18:00:00,84.7,76.6,29.91,East,84,6.0,12.0,77,0.00,CLR,,0.00,WeatherDisplay:10.37,2013-08-28 00:00:00,
2013-08-27 18:15:00,84.6,77.7,29.92,East,80,2.0,12.0,80,0.00,CLR,,0.00,WeatherDisplay:10.37,2013-08-28 00:15:00,
2013-08-27 18:30:00,84.4,78.3,29.92,ENE,73,7.0,12.0,82,0.00,CLR,,0.00,WeatherDisplay:10.37,2013-08-28 00:30:00,
2013-08-27 18:45:00,84.4,77.9,29.93,ENE,77,7.0,13.0,81,0.00,CLR,,0.00,WeatherDisplay:10.37,2013-08-28 00:45:00,
2013-08-27 19:00:00,84.3,77.8,29.93,NE,56,2.0,10.0,81,0.00,CLR,,0.00,WeatherDisplay:10.37,2013-08-28 01:00:00,
2013-08-27 19:15:00,84.4,78.3,29.94,East,85,10.0,14.0,82,0.00,CLR,,0.00,WeatherDisplay:10.37,2013-08-28 01:15:00,
2013-08-27 19:30:00,83.8,77.7,29.94,ESE,115,10.0,15.0,82,0.00,CLR,,0.00,WeatherDisplay:10.37,2013-08-28 01:30:00,
2013-08-27 19:45:00,83.4,77.7,29.95,East,100,5.0,15.0,83,0.00,CLR,,0.00,WeatherDisplay:10.37,2013-08-28 01:45:00,
2013-08-27 20:00:00,83.6,77.9,29.95,East,91,6.0,12.0,83,0.00,CLR,,0.00,WeatherDisplay:10.37,2013-08-28 02:00:00,
2013-08-27 20:15:00,83.8,78.0,29.95,East,81,6.0,12.0,83,0.00,CLR,,0.00,WeatherDisplay:10.37,2013-08-28 02:15:00,
2013-08-27 20:45:00,84.0,78.3,29.96,East,82,6.0,13.0,83,0.00,CLR,,0.00,WeatherDisplay:10.37,2013-08-28 02:45:00,
2013-08-27 21:00:00,84.0,78.3,29.97,East,84,7.0,13.0,83,0.00,CLR,,0.00,WeatherDisplay:10.37,2013-08-28 03:00:00,
2013-08-27 21:15:00,83.9,78.5,29.96,East,99,7.0,12.0,84,0.00,CLR,,0.00,WeatherDisplay:10.37,2013-08-28 03:15:00,
2013-08-27 21:30:00,83.9,78.2,29.96,East,87,5.0,10.0,83,0.00,CLR,,0.00,WeatherDisplay:10.37,2013-08-28 03:30:00,
2013-08-27 21:45:00,84.2,78.1,29.96,East,98,6.0,13.0,82,0.00,CLR,,0.00,WeatherDisplay:10.37,2013-08-28 03:45:00,
2013-08-27 22:00:00,84.3,78.9,29.96,East,96,8.0,13.0,84,0.00,CLR,,0.00,WeatherDisplay:10.37,2013-08-28 04:00:00,
2013-08-27 22:15:00,83.7,78.3,29.96,ESE,112,9.0,12.0,84,0.00,CLR,,0.00,WeatherDisplay:10.37,2013-08-28 04:15:00,
2013-08-27 22:30:00,83.6,78.6,29.95,ESE,115,6.0,10.0,85,0.00,CLR,,0.00,WeatherDisplay:10.37,2013-08-28 04:30:00,
2013-08-27 22:45:00,83.5,78.5,29.95,ESE,111,5.0,10.0,85,0.00,CLR,,0.00,WeatherDisplay:10.37,2013-08-28 04:45:00,
2013-08-27 23:00:00,83.4,78.4,29.95,ESE,114,7.0,10.0,85,0.00,CLR,,0.00,WeatherDisplay:10.37,2013-08-28 05:00:00,
2013-08-27 23:15:00,83.5,78.5,29.95,ESE,104,6.0,9.0,85,0.00,CLR,,0.00,WeatherDisplay:10.37,2013-08-28 05:15:00,
2013-08-27 23:30:00,83.4,78.4,29.94,ESE,105,3.0,8.0,85,0.00,CLR,,0.00,WeatherDisplay:10.37,2013-08-28 05:30:00,
2013-08-27 23:45:00,83.5,78.2,29.94,ESE,110,5.0,9.0,84,0.00,CLR,,0.00,WeatherDisplay:10.37,2013-08-28 05:45:00,